Back to catalog

COSMOS 2250

AliveMilitaryPO
NORAD 22651·PAYLOAD·🇷🇺 Russia

Launched May 11, 1993 from Plesetsk Cosmodrome

Loading…

Next Passes (next 24 hours)

TLE

FreshSource: Space-Track

Epoch: Sep 14, 2026, 12:34 UTC

1 22651U 93030F   26257.52427146  .00000000  00000-0 -60234-4 0  9994
2 22651  82.5781 264.1953 0010784  86.2090  82.7779 12.63099879537294

Track COSMOS 2250 in real time with AllMySat

Download on the App Store